STAR ONE C4

Last updated on Thu Nov 21 2024 00:02:43 GMT+0000 (Coordinated Universal Time)

1 40733U 15034B 24324.56662374 -.00000263 00000+0 00000+0 0 9994 2 40733 0.0317 20.3996 0001732 245.7667 286.9148 1.00271356 34267
UTC large
Height (km)
Speed (km/s)
/
Latitude / Longitude
Inclination (degrees)
Orbital Period (minutes)
Azimuth
Elevation
Range (km)
Doppler Factor

Next 0 passes for location: London (51.5072 / 0.1276)

Sorry there are no passes over London.